ROMMA est une association bénévole à but non lucratif. Votre soutien est indispensable : ADHERER à ROMMA ou FAIRE un DON

Val-d'Arly - (73, Savoie)

Beaufortain (2050 m)   Longitude: 06° 35' 21" E   Latitude: 45° 46' 53" N Station romma n°118
 

Détail journalier du     <<     >>

Température Precipitation Humidité Vent Dir Rafale Dir. rafale Ensol.
Heure (°C) (mm) (%) (km/h) (km/h) (min)
01:00 16.407012O16OSO0
02:00 16.906014SO23OSO0
03:00 16.706012O16OSO0
04:00 16.106113OSO16O0
05:00 16.10629OSO16OSO0
06:00 16.30557OSO13OSO0
07:00 16.40558OSO13OSO20
08:00 16.105911OSO15O60
09:00 17.20574O11OSO60
10:00 17.90497O13O60
11:00 19.40574O16O60
12:00 19.50454NE10ENE60
13:00 20.30426NE19NE60
14:00 20.60389NE19NNE40
15:00 21.303114NE26NNE50
16:00 21.803511NNE24NNE60
17:00 21.703412NNE24NNE50
18:00 21.90449NE24NNE60
19:00 21.104913NE26NNE60
20:00 19.905514NNE23NNE60
21:00 19.205015NNE19NNE50
22:00 18.80498N18N0
23:00 18.60483SO6OSO0
minuit 18.40453O8SO0

Graphique du 23-07-2019

 

Serveur OMMA